Temp_Advection
nan nan nan nan nan nan nan nan nan nan nan nan nan nan nan nan nan nan nan nan nan nan nan nan nan nan nan nan nan nan nan nan nan nan nan nan nan nan nan nan nan nan nan nan nan nan nan nan nan nan nan nan nan nan nan nan nan nan nan nan nan nan nan nan nan nan nan nan nan
nan -1 -1 0 1 1 0 0 0 1 1 -1 -2 -1 1 3 6 7 5 4 4 4 3 2 1 1 1 0 0 1 1 1 2 3 4 3 2 3 4 4 2 1 1 0 1 1 1 1 1 0 0 0 0 0 0 0 -0 -0 0 0 0 0 0 0 0 0 0 0 nan
nan -0 -0 0 0 -0 -0 -0 -0 -0 -0 1 2 4 5 6 6 5 4 4 4 3 1 1 1 0 0 0 0 1 1 2 3 4 3 2 3 4 5 3 2 1 0 0 1 2 1 1 0 0 0 1 1 1 0 0 -0 0 0 1 0 0 0 0 0 0 0 0 nan
nan -0 -1 -1 -1 -1 -1 -1 -0 -0 0 3 5 5 3 3 4 4 2 2 2 1 0 0 0 1 1 0 0 1 1 3 4 3 2 2 4 5 4 3 1 -0 0 1 2 2 1 0 0 0 1 1 1 0 0 -0 -0 0 0 0 0 0 0 0 0 0 0 0 nan
nan -1 -1 -2 -1 -1 -0 0 0 1 2 5 5 3 2 2 2 1 0 0 -0 -0 1 1 1 1 1 1 1 1 2 3 3 2 2 3 5 5 3 1 0 0 1 2 2 1 0 0 0 0 1 0 0 0 -0 -0 -0 0 0 0 0 0 0 0 0 0 0 0 nan
nan -1 -1 -1 -1 -0 0 1 1 2 3 4 2 1 1 1 0 -0 -0 -0 -0 0 1 2 1 0 1 1 1 2 3 3 3 2 2 3 4 4 2 1 1 1 2 2 1 1 0 0 0 0 0 0 0 -0 -0 -0 0 0 0 0 0 0 0 0 0 0 0 0 nan
nan 0 -0 -1 -0 1 1 2 2 2 3 2 1 1 1 1 1 1 1 2 2 2 2 1 1 0 1 1 2 3 3 3 2 2 2 3 4 2 1 1 1 1 1 1 1 0 0 0 0 0 0 0 -0 -0 -0 0 0 0 0 0 0 0 0 0 0 0 0 0 nan
nan 1 1 1 2 2 2 2 1 1 2 2 2 2 3 3 2 3 4 4 2 1 1 1 0 0 1 2 3 3 3 2 1 2 2 3 3 2 1 1 1 1 1 1 0 0 0 0 0 0 0 0 -0 -0 0 0 0 0 0 0 0 0 0 0 0 0 0 0 nan
nan 1 1 2 3 3 2 1 1 1 3 4 5 4 3 2 3 4 5 4 2 1 1 0 0 1 2 2 3 3 3 1 1 2 3 3 3 2 1 1 1 1 1 0 0 0 0 0 0 0 0 -0 -0 0 0 0 0 0 0 -0 0 0 0 0 0 0 0 0 nan
nan 1 2 2 2 2 2 1 1 3 4 5 4 3 2 1 2 4 5 3 2 1 0 -0 0 1 2 2 2 2 2 1 1 2 3 3 3 2 1 1 1 1 0 0 0 0 0 0 0 0 -0 -0 0 0 0 0 0 0 -0 -0 0 0 0 0 0 0 0 0 nan
nan 2 3 3 2 1 1 1 3 4 4 3 2 1 1 1 3 4 3 2 1 -0 -1 -0 1 1 1 2 2 1 1 1 2 3 3 3 2 1 1 1 1 1 -0 -0 0 0 1 0 0 -0 -0 0 1 1 0 0 0 -0 -0 0 0 0 0 0 0 0 0 0 nan
nan 3 3 3 2 1 2 3 3 3 3 2 1 0 0 2 4 3 2 1 -0 -0 -1 -0 1 2 2 2 1 1 1 1 2 3 3 3 2 1 1 1 1 0 -0 -0 0 1 1 0 -0 -0 0 1 1 0 0 0 -0 -0 0 0 0 0 0 0 0 0 0 0 nan
nan 3 3 2 2 2 3 3 3 2 2 2 1 0 1 3 4 3 1 -0 -0 -0 -1 0 2 3 3 2 1 1 1 2 3 3 3 2 1 1 1 1 0 -0 0 1 1 1 0 -0 0 0 1 1 0 0 0 -0 -0 0 0 0 0 0 0 0 0 0 0 0 nan
nan 2 2 2 2 3 3 3 2 2 2 1 1 1 3 4 3 1 -0 -1 -0 -1 -0 2 4 4 3 1 1 2 3 3 3 3 2 2 1 1 1 1 0 0 1 1 1 1 0 -0 0 1 1 1 0 0 0 0 0 0 0 0 0 0 0 0 0 0 0 0 nan
nan 2 2 2 3 3 2 2 2 2 2 1 1 2 3 2 1 0 -0 -0 -1 -0 1 4 5 4 3 2 2 3 3 3 3 2 2 1 1 1 1 0 1 1 1 1 0 -0 -0 0 1 1 0 0 0 0 0 0 0 0 0 0 0 0 0 0 0 0 0 -0 nan
nan 2 2 3 3 3 2 2 2 1 1 1 2 2 2 1 0 0 -0 -1 -0 1 3 5 5 4 2 2 2 3 3 3 2 1 1 1 1 1 1 1 1 1 1 0 -1 -1 -0 0 1 0 0 -0 0 0 0 0 -0 0 0 0 0 0 0 0 0 0 0 0 nan
nan 3 3 3 3 3 2 1 1 1 1 2 2 2 1 1 1 1 0 0 1 2 4 5 4 3 1 1 1 2 2 1 1 1 2 2 1 1 1 1 1 1 -0 -1 -1 -0 0 0 0 0 0 0 0 0 0 -0 -0 0 0 0 0 0 0 0 0 0 0 0 nan
nan 3 3 4 3 2 1 1 1 1 2 2 2 1 1 1 1 1 1 1 1 3 4 4 4 2 0 0 1 1 1 1 1 1 2 2 1 1 1 1 0 -1 -1 -1 -0 0 1 1 0 0 0 0 0 0 -0 -0 0 0 0 0 0 0 0 0 0 0 0 0 nan
nan 3 3 3 2 1 1 1 2 3 3 2 1 1 1 1 2 2 2 1 1 3 4 4 2 1 0 1 2 2 1 1 1 2 2 2 1 1 1 0 -1 -1 -1 -0 0 1 1 0 0 1 1 0 0 -0 -0 0 0 0 0 0 0 0 0 0 0 0 0 0 nan
nan 3 2 2 1 1 2 2 3 2 2 1 0 0 1 2 2 2 1 1 2 3 4 3 2 1 1 2 3 2 1 1 2 2 2 1 1 1 -0 -1 -1 -1 -0 0 1 1 1 1 1 1 0 0 -0 -0 0 0 0 0 0 0 0 0 0 0 0 0 0 0 nan
nan 2 2 2 2 2 2 2 2 1 1 0 0 1 2 2 2 1 1 1 3 4 4 3 2 2 2 2 2 1 1 2 2 2 1 1 0 -0 -1 -1 -0 0 1 1 1 1 1 1 1 0 0 -0 -0 0 0 0 0 0 0 0 0 0 0 0 0 0 0 0 nan
nan 2 2 2 2 2 2 1 1 0 0 1 1 2 2 2 1 1 2 3 4 4 3 3 2 2 2 2 1 1 1 2 2 1 1 0 -0 -1 -1 0 1 1 1 1 1 1 1 1 0 0 -0 -0 0 0 0 0 0 0 0 0 0 0 0 0 0 0 0 0 nan
nan 3 2 2 2 2 1 1 0 1 1 1 2 2 1 1 1 2 3 4 4 3 3 2 2 1 1 1 1 1 1 1 1 1 1 -0 -0 0 1 1 1 1 1 1 1 1 1 0 -0 -0 -0 -0 -0 0 0 0 0 0 0 0 0 0 0 0 0 0 0 0 nan
nan 2 2 2 2 1 1 1 1 1 1 1 1 1 2 2 3 4 4 4 3 3 2 2 1 1 1 1 1 1 1 1 0 0 0 0 1 1 2 2 1 1 1 1 1 1 0 -0 -0 -0 -0 -0 0 0 0 0 0 0 0 0 0 0 0 0 0 0 0 0 nan
nan 2 2 2 2 1 1 1 1 1 1 2 2 3 3 4 4 4 4 3 3 2 2 1 0 1 1 2 2 1 1 1 0 0 0 1 1 2 1 1 1 1 1 1 1 0 -0 -0 -0 -0 0 0 0 0 0 0 0 0 0 0 0 0 0 0 0 0 0 0 nan
nan 2 2 2 2 1 1 1 1 2 2 3 4 4 4 4 4 4 3 3 2 2 1 1 1 1 2 2 1 1 1 1 1 1 1 1 1 1 0 0 0 0 1 1 0 0 -0 -0 -0 -0 -0 0 0 0 0 0 0 0 -0 0 0 0 0 0 0 0 0 0 nan
nan 2 2 1 1 1 1 2 2 3 4 4 4 4 4 4 4 3 3 2 1 1 1 1 1 1 1 1 1 1 1 1 1 1 1 0 0 -0 -0 0 0 0 1 0 0 -0 -0 -0 -0 -0 -0 0 0 0 0 0 -0 -0 -0 0 0 0 0 0 0 0 0 0 nan
nan 1 1 1 1 2 2 3 3 4 4 4 4 4 4 3 3 3 2 1 1 1 1 1 1 1 1 1 1 1 1 1 1 1 1 1 0 0 0 1 1 1 1 0 0 -0 -0 -0 -0 -0 0 0 0 0 0 -0 -0 0 0 0 0 0 -0 -0 -0 0 0 0 nan
nan 1 1 2 2 3 3 3 4 4 4 4 3 3 3 3 2 1 1 1 1 1 1 1 1 1 1 1 1 1 1 1 1 1 1 0 0 0 1 1 1 1 0 -0 -0 -0 -0 -0 -0 0 0 0 0 -0 -0 -0 -0 0 0 0 0 -0 -0 -0 -0 0 0 0 nan
nan 3 3 3 3 4 4 4 3 3 3 3 3 3 2 1 1 0 0 1 1 1 1 1 1 1 1 1 1 1 1 1 1 0 -0 -0 0 1 1 1 1 0 -0 -0 -1 -1 -0 -0 0 0 0 0 0 -0 -0 -0 -0 -0 0 0 0 0 0 0 0 0 0 0 nan
nan 4 4 4 3 3 3 3 3 3 3 2 2 1 1 0 -0 -0 0 0 1 1 1 1 1 1 1 1 1 1 0 -0 -1 -1 -0 0 0 1 1 0 0 -0 -1 -1 -1 -0 0 0 0 0 0 0 -0 -0 -0 -0 -0 -0 -0 -0 0 0 0 0 0 0 0 0 nan
nan 3 3 3 3 3 3 3 3 3 2 1 1 0 -0 -0 -0 0 0 1 1 1 1 1 1 1 1 0 -0 -1 -1 -1 -1 -0 0 1 1 1 0 0 -0 -1 -1 -0 -0 0 0 0 0 -0 -0 -0 -0 -0 -0 -0 -0 -0 -0 0 0 0 0 0 0 0 0 0 nan
nan 2 2 2 2 2 2 2 2 2 1 1 0 0 0 0 0 1 1 1 1 0 0 0 -0 -1 -1 -2 -2 -2 -1 -1 -0 0 1 1 1 0 -0 -0 -1 -0 -0 0 0 0 0 -0 -0 -0 -0 0 -0 -0 -0 -0 -0 -0 -0 0 0 0 0 0 0 0 0 0 nan
nan 1 1 1 1 1 1 1 1 1 0 0 0 1 1 1 1 1 1 1 0 0 -0 -1 -1 -1 -2 -1 -1 -1 -0 0 1 1 1 1 0 -0 -0 -0 -0 0 0 0 0 0 -0 -0 -0 -0 0 0 0 -0 -0 -0 -0 -0 0 0 0 0 0 0 0 0 0 0 nan
nan 1 1 1 1 1 0 0 0 0 0 1 1 1 1 1 1 0 -0 -0 -0 -1 -1 -1 -1 -1 -0 -0 0 1 1 1 1 1 0 0 -0 -0 -0 0 0 0 0 0 -0 -0 -0 -0 -0 -0 0 0 -0 -0 -0 -0 -0 0 0 0 0 0 0 0 0 0 0 0 nan
nan 1 0 0 0 0 0 -0 -0 0 0 0 0 0 0 0 0 -0 -0 -1 -1 -1 -1 -1 -0 -0 0 0 0 1 1 1 0 0 0 -0 0 0 0 0 0 0 -0 -0 -0 -0 -0 -0 -0 -0 0 0 0 -0 -0 -0 -0 0 0 0 0 0 0 0 0 0 0 0 nan
nan 0 -0 -1 -1 -1 -1 -0 -0 -0 0 0 -0 -0 -0 -0 -0 -0 -0 -0 -0 -0 -0 -0 0 0 0 0 0 0 0 0 0 0 0 0 0 0 0 0 0 -0 -0 -0 -0 -0 -0 -0 -0 0 0 0 -0 -0 -0 -0 -0 -0 0 0 0 0 0 0 0 0 0 0 nan
nan -1 -1 -1 -1 -1 -1 -1 -0 -0 -0 -0 -0 -0 -0 -0 -0 -0 0 0 0 0 0 0 0 1 1 0 0 0 0 0 0 0 0 0 0 0 -0 -0 -0 -0 -0 -0 0 0 0 -0 -0 -0 0 0 -0 -0 -0 -0 -0 -0 -0 0 0 0 0 0 0 0 0 0 nan
nan -0 -0 -0 -0 -0 -1 -1 -1 -1 -1 -0 -0 -0 0 0 0 0 1 1 1 1 1 1 0 0 0 0 0 0 0 0 0 0 0 0 -0 -0 -0 -0 0 0 0 0 0 0 0 -0 -0 -0 -0 0 0 -0 -0 -0 -0 -0 -0 0 0 0 0 0 0 0 0 0 nan
nan 0 0 0 0 0 -0 -1 -1 -1 -0 -0 -0 0 1 1 1 1 1 1 1 1 1 0 0 0 0 0 0 0 0 0 0 0 -0 -0 -0 -0 0 0 0 0 0 0 0 0 0 -0 -0 -0 -0 -0 0 -0 -0 -0 -0 -0 -0 -0 0 0 0 0 0 0 0 0 nan
nan nan nan nan nan nan nan nan nan nan nan nan nan nan nan nan nan nan nan nan nan nan nan nan nan nan nan nan nan nan nan nan nan nan nan nan nan nan nan nan nan nan nan nan nan nan nan nan nan nan nan nan nan nan nan nan nan nan nan nan nan nan nan nan nan nan nan nan nan
Wind_Speed
45 46 46 46 46 46 46 46 46 47 47 48 50 51 51 51 51 51 51 51 51 50 50 50 49 49 49 49 48 48 48 48 47 46 44 41 38 35 31 29 29 31 32 32 31 30 28 27 26 23 21 19 17 15 13 10 8 8 9 10 8 7 6 5 6 6 7 8 9
45 46 46 45 45 45 45 45 46 47 47 48 49 50 51 51 51 51 51 51 50 50 49 49 49 49 48 48 47 48 48 48 47 45 42 38 36 32 30 29 30 32 34 33 32 30 28 27 25 23 20 18 16 13 10 9 9 10 10 9 7 6 5 5 6 7 7 8 9
46 46 45 45 44 44 44 44 45 46 47 48 49 49 49 49 49 49 49 49 49 48 48 48 48 48 47 47 47 47 47 47 45 43 40 36 33 31 29 30 33 34 34 33 31 29 27 25 23 21 19 16 13 10 9 9 10 11 10 8 6 5 5 5 6 7 8 8 9
46 46 45 45 44 44 44 44 45 45 46 48 48 48 47 47 46 45 46 47 47 47 47 47 47 47 46 46 46 46 46 45 43 40 37 35 32 30 31 33 34 35 34 32 30 28 26 24 22 20 17 14 11 9 9 11 11 10 9 7 6 5 5 6 6 7 8 9 10
46 46 46 45 44 44 43 44 44 45 46 47 48 48 47 46 44 43 43 44 45 46 47 46 46 45 45 44 45 45 44 43 40 38 35 33 32 32 33 35 35 34 33 31 29 27 25 23 21 19 16 14 12 12 12 13 11 10 8 6 5 5 5 6 7 7 8 9 10
46 46 46 45 44 44 43 43 44 44 46 48 49 48 47 46 45 44 44 43 45 45 45 45 45 44 43 43 43 43 43 41 39 36 34 33 33 34 35 36 35 33 32 30 28 26 25 23 21 19 17 15 14 14 14 12 10 8 7 6 5 5 6 6 7 8 9 10 11
46 46 46 45 45 44 44 44 44 45 46 48 49 49 48 48 46 46 45 45 45 44 44 43 43 42 42 42 42 42 41 40 37 36 34 34 34 35 36 35 34 32 30 28 27 26 25 23 21 19 17 16 15 14 13 11 9 8 6 6 5 6 6 7 8 8 9 10 11
45 46 46 45 45 44 44 44 44 45 46 48 48 49 48 47 47 46 46 45 44 43 42 42 41 41 41 41 41 41 40 39 37 35 35 35 35 36 36 34 33 30 29 28 27 26 25 23 20 18 16 16 15 13 11 9 8 7 6 6 6 6 7 7 8 9 9 10 11
44 45 45 45 44 44 44 44 45 45 46 47 48 47 46 46 46 46 45 43 42 41 40 40 39 39 39 39 39 39 39 38 36 36 35 35 36 36 35 34 32 30 29 28 27 26 24 21 19 17 16 15 13 11 10 9 8 7 6 6 6 7 7 8 8 9 10 11 11
43 43 44 44 44 44 44 44 45 46 46 46 46 46 45 45 45 45 43 40 38 37 37 37 38 38 38 38 38 37 37 36 36 36 36 36 36 36 35 33 32 31 30 29 27 24 22 19 18 17 16 14 12 10 9 8 8 7 7 6 7 7 8 8 9 10 10 11 12
41 42 43 44 44 44 44 44 45 46 46 45 45 45 45 45 44 42 39 37 35 34 35 36 37 37 37 37 36 36 35 35 35 36 37 37 37 36 35 33 32 31 30 28 25 22 20 18 17 16 15 13 11 10 9 8 8 7 7 7 7 7 8 9 9 10 11 11 12
40 42 43 44 45 45 45 45 45 46 46 45 45 44 45 44 43 40 37 35 33 33 33 34 35 36 35 35 35 34 34 35 36 37 38 38 37 36 35 33 32 30 28 25 23 20 18 17 17 15 13 11 10 9 9 8 7 7 7 7 8 8 9 9 10 10 11 11 12
40 42 43 44 45 45 45 45 45 46 45 44 44 44 44 43 40 37 35 34 32 31 31 34 35 34 34 34 34 34 34 36 37 38 39 39 37 36 34 33 31 28 26 23 21 19 18 17 15 13 11 10 9 9 8 7 7 7 8 8 8 9 9 10 10 11 11 12 12
40 42 43 44 44 45 45 45 45 45 44 44 43 43 42 40 37 35 33 32 31 30 31 33 34 33 33 34 34 35 36 37 38 39 39 38 37 35 34 31 29 26 24 21 19 18 17 16 14 12 10 10 9 8 8 8 8 8 8 8 9 9 10 10 11 11 11 12 12
40 42 43 44 44 44 44 44 44 44 43 42 42 42 39 36 33 32 32 32 31 31 33 34 33 33 34 35 35 36 37 38 39 39 39 38 36 34 32 30 27 24 22 21 20 19 18 16 14 12 10 10 9 9 8 8 8 8 8 9 9 9 10 10 11 11 11 12 13
40 41 42 43 44 44 44 44 43 42 42 41 41 39 36 32 31 31 31 32 31 33 34 34 33 34 35 36 36 37 38 39 39 39 38 37 35 33 31 28 25 23 22 22 21 19 18 15 13 12 10 10 9 9 8 8 8 8 8 9 9 9 10 10 11 11 12 13 13
40 41 42 42 43 43 43 42 42 41 40 40 38 36 32 31 30 30 30 30 31 32 32 33 34 36 37 37 37 38 38 38 38 38 37 36 34 32 29 27 25 24 23 22 20 18 16 14 13 11 10 9 9 9 9 8 8 8 9 9 9 9 10 11 11 12 13 13 14
40 41 41 41 41 41 41 40 40 40 39 38 35 33 31 30 30 30 29 29 29 30 31 33 35 36 37 38 38 38 38 38 38 37 36 34 32 30 28 26 25 24 23 21 19 17 15 13 12 11 10 9 9 9 9 8 8 8 9 9 9 10 10 11 12 13 13 14 14
39 40 40 39 39 39 39 39 39 39 38 35 32 30 29 29 30 29 28 28 28 29 31 34 36 37 37 37 38 37 37 37 37 36 35 33 31 29 27 26 25 24 22 20 18 16 14 12 11 10 10 9 9 9 8 8 8 8 9 9 10 10 11 12 13 14 14 14 15
38 38 38 38 38 38 38 38 38 37 34 32 30 29 29 29 29 28 28 28 29 30 32 34 36 37 37 36 36 35 35 36 36 36 34 32 29 28 27 26 24 22 20 18 16 14 13 11 10 10 10 9 9 8 8 8 8 9 9 10 11 11 12 13 14 14 15 15 15
36 36 37 37 37 38 38 38 36 34 31 30 29 29 29 28 28 27 28 28 30 31 33 35 36 36 36 36 35 35 36 37 36 35 33 30 28 27 26 25 23 21 18 16 15 13 12 11 10 10 10 9 9 8 8 9 9 9 10 11 12 12 13 14 14 14 15 15 15
35 35 36 36 37 37 37 36 33 31 29 29 28 28 28 27 27 28 28 29 30 32 34 35 36 36 35 34 34 35 37 37 35 33 31 29 27 26 25 23 21 18 16 15 13 12 11 11 11 10 10 9 9 9 9 9 10 10 11 12 12 13 14 14 14 14 14 15 15
35 36 36 37 36 36 34 33 30 29 28 27 27 27 27 28 28 29 29 31 32 34 35 36 36 35 34 32 33 35 37 36 34 31 29 27 26 25 23 20 18 16 14 13 12 12 11 11 11 11 10 9 9 9 10 10 10 11 12 12 13 13 14 14 14 14 15 15 16
35 36 36 36 35 34 32 31 29 27 26 26 26 27 28 29 29 30 31 33 34 36 37 37 35 33 31 30 32 35 36 34 32 30 28 27 25 23 20 18 16 15 14 13 12 12 12 11 11 10 10 9 10 10 10 11 11 12 12 12 12 13 13 14 14 14 15 15 16
35 35 35 34 33 32 31 30 28 27 26 26 27 28 29 30 31 32 34 35 37 38 37 36 33 30 28 29 32 33 33 32 30 29 27 25 23 21 19 18 16 15 15 14 13 13 12 11 10 10 10 10 10 11 11 11 11 12 12 12 12 13 13 13 14 15 15 16 17
34 34 34 33 32 31 30 28 27 27 27 28 29 29 30 32 33 34 36 37 38 37 35 32 29 27 27 29 32 33 32 30 29 28 26 24 22 21 19 18 17 16 15 14 13 13 12 11 10 10 10 11 11 11 11 11 11 12 12 12 12 13 13 14 14 15 16 16 17
34 33 33 32 31 30 29 28 28 28 28 29 30 31 32 33 35 36 37 37 36 34 31 28 26 26 28 31 32 32 31 29 28 26 25 23 22 20 19 18 17 15 14 13 12 12 11 11 11 11 11 11 11 11 11 11 11 12 12 12 13 13 14 14 15 15 16 17 17
33 32 31 30 29 29 29 29 29 29 30 30 31 32 33 35 35 36 35 34 32 29 27 26 26 28 30 32 32 31 30 28 27 25 24 22 20 19 18 16 15 13 12 12 12 11 11 11 11 11 11 11 10 10 10 11 11 12 12 13 13 14 14 15 15 16 17 17 18
32 31 30 29 29 29 29 29 30 30 30 31 32 33 34 34 34 33 32 30 28 27 27 27 29 31 32 32 31 30 28 27 25 24 22 20 19 17 15 14 13 12 12 12 12 12 12 12 12 11 11 10 9 10 10 11 11 12 13 13 14 14 15 16 16 17 17 17 18
30 30 29 29 29 30 30 30 29 30 30 31 32 33 33 33 32 30 29 28 27 27 28 30 32 32 32 31 29 28 26 25 24 22 20 19 17 15 14 13 12 12 12 12 12 12 12 12 12 11 10 9 9 10 10 11 12 12 13 14 14 15 16 16 17 17 18 18 18
30 29 30 30 30 30 30 30 30 30 31 32 32 32 32 31 30 28 27 27 28 28 30 31 32 32 30 29 28 27 26 24 22 20 18 17 15 14 13 13 13 13 12 12 12 12 12 11 11 10 9 8 9 10 11 11 12 13 13 14 15 16 16 17 17 17 18 18 18
29 29 30 30 31 30 30 30 31 31 31 31 31 30 30 29 28 27 26 27 28 29 31 31 31 30 29 28 27 26 24 22 20 18 16 15 13 13 13 13 13 12 12 11 11 11 10 10 9 9 8 8 9 10 11 12 13 13 14 15 15 16 16 17 17 17 17 18 18
29 29 30 31 31 31 31 31 31 31 30 30 29 28 28 27 26 26 26 27 28 30 30 30 29 29 28 27 26 24 21 19 17 15 14 13 12 12 12 12 12 11 11 10 10 9 8 8 9 9 9 9 10 11 12 13 13 14 14 15 15 16 16 16 16 17 17 17 18
29 29 30 30 30 30 30 30 30 29 29 28 27 27 26 25 26 26 28 28 29 29 29 28 27 27 25 23 21 19 16 14 13 12 11 11 11 11 11 11 10 9 8 8 7 7 8 8 9 9 9 10 11 12 12 13 14 14 14 15 15 15 15 16 16 16 17 17 18
28 29 29 29 29 29 29 28 28 28 27 27 26 26 25 25 26 28 29 29 29 28 27 26 25 23 20 18 15 13 12 11 10 10 10 10 10 10 10 9 8 7 6 6 6 7 8 9 9 10 10 10 11 12 13 13 13 14 14 14 14 15 15 15 16 16 16 17 17
27 27 28 28 28 28 27 27 27 27 26 26 25 25 25 26 27 28 28 28 27 26 25 23 20 18 15 13 11 10 10 10 10 10 10 10 9 8 7 6 5 5 5 6 7 8 9 10 10 10 10 11 11 12 13 13 13 13 13 13 14 14 15 15 15 16 16 17 17
25 25 25 26 26 26 25 25 25 25 25 24 24 25 27 28 28 28 27 26 25 23 20 18 15 13 12 11 11 11 10 9 9 9 8 8 7 6 5 4 4 5 6 7 7 8 9 10 10 10 10 11 12 12 12 12 12 13 13 13 13 14 14 15 15 15 16 16 16
22 21 21 21 22 22 23 23 23 24 24 25 26 27 28 29 28 27 25 23 20 18 16 14 13 12 12 11 11 10 9 8 7 6 6 5 5 5 5 5 5 6 7 7 8 8 9 10 10 10 11 11 12 12 12 12 12 12 12 13 13 13 14 14 14 14 15 15 16
18 17 17 17 18 19 20 22 23 25 26 28 29 29 29 27 26 24 21 19 16 15 14 14 13 12 11 10 9 8 7 6 5 4 4 4 5 5 5 5 6 6 7 7 7 8 9 10 11 11 11 11 11 12 12 12 12 12 12 12 13 13 13 13 14 14 14 15 15
14 14 15 16 18 20 23 25 27 28 29 29 29 28 26 24 22 20 18 16 15 14 14 13 12 11 10 8 7 6 6 5 5 5 5 5 5 5 5 5 6 6 7 7 8 8 9 10 11 11 11 11 11 12 12 12 12 12 13 13 13 13 13 13 13 13 13 14 14
13 14 16 19 22 25 28 29 30 30 29 28 26 25 23 21 20 18 17 16 15 13 12 11 10 9 8 7 6 6 6 6 6 5 5 5 5 4 5 5 6 6 7 7 8 8 9 10 11 12 12 12 12 12 12 12 12 13 13 13 13 13 13 12 12 12 13 13 13
Wind_Direction
233 234 235 235 235 234 233 233 233 230 226 224 225 228 231 233 233 232 232 231 230 229 228 227 226 226 226 226 227 228 229 231 231 232 232 233 234 234 231 221 210 204 204 206 208 209 210 212 213 214 215 214 212 211 212 217 226 240 251 256 258 262 271 279 280 280 280 282 286
233 234 236 236 236 235 234 234 235 234 232 228 226 228 231 233 233 232 231 231 230 228 227 227 226 226 226 227 228 229 230 232 232 231 231 232 231 229 222 212 206 204 206 209 210 210 210 211 212 212 211 209 207 206 211 223 236 245 250 252 254 261 272 281 281 281 283 284 286
233 234 235 235 235 235 234 234 234 235 236 234 231 229 229 230 230 231 231 230 230 229 227 227 227 227 228 228 229 230 231 232 232 231 230 230 227 221 211 204 203 205 209 211 211 210 209 210 210 209 206 203 202 205 216 232 242 246 249 250 254 264 276 282 283 283 284 285 285
232 233 233 234 235 236 236 236 236 237 237 237 233 231 231 230 230 230 231 231 230 229 229 229 229 229 229 230 230 231 232 232 231 230 228 226 221 212 205 202 203 207 210 211 210 208 208 208 206 203 200 198 200 208 223 235 242 246 247 250 258 269 279 285 285 285 285 284 285
232 233 233 235 236 238 239 239 239 238 238 236 233 232 232 232 232 231 231 231 230 230 231 231 231 230 230 230 230 231 232 232 230 229 226 222 215 207 202 202 205 208 209 208 206 205 205 204 200 197 196 198 206 216 227 235 240 243 247 252 261 274 283 287 286 286 286 286 287
232 233 234 235 237 238 239 239 239 239 237 234 232 232 232 233 233 233 233 233 232 231 231 231 230 230 231 231 231 231 231 231 230 228 224 219 211 205 202 202 205 207 206 205 203 202 201 199 197 196 199 205 213 221 228 232 236 240 246 252 261 274 284 285 284 284 286 286 287
234 234 234 235 235 236 236 237 237 237 236 234 233 233 233 234 234 234 235 234 233 231 229 228 229 230 230 231 231 231 231 230 229 227 223 216 209 204 202 202 203 204 203 201 199 198 197 196 197 200 205 211 216 221 225 228 231 236 244 251 262 274 280 280 282 283 284 284 284
235 235 234 235 234 233 232 233 233 234 234 233 233 233 233 234 234 234 234 233 232 231 229 229 230 230 231 232 232 232 230 229 228 226 221 214 207 203 202 202 202 201 200 198 196 195 195 196 199 203 209 213 216 218 220 222 227 234 243 253 265 274 278 279 281 282 282 283 283
233 233 233 233 232 229 228 229 231 232 232 232 232 232 232 232 232 232 232 232 233 232 232 232 232 233 233 233 233 231 230 229 228 225 219 211 205 202 201 201 200 199 198 196 195 195 196 197 200 205 209 212 212 213 215 219 226 234 245 258 269 275 278 279 280 280 281 281 281
231 231 231 230 229 227 226 227 229 230 231 230 229 230 230 231 231 231 232 234 234 233 233 234 234 234 234 234 232 230 229 228 227 222 216 208 203 201 200 200 199 198 196 195 195 196 198 199 201 204 207 208 207 207 211 219 226 237 250 262 271 276 277 277 278 279 279 279 280
232 231 229 228 227 226 226 225 227 227 228 228 227 228 229 230 230 232 236 238 236 235 235 236 236 236 235 233 230 228 227 227 225 219 212 205 202 200 200 199 198 197 196 196 197 198 198 199 201 203 205 204 203 205 211 219 230 243 256 267 273 276 277 277 278 278 278 278 279
230 229 228 226 226 225 225 225 225 225 225 225 226 227 229 229 230 234 238 240 240 239 238 238 237 236 234 231 228 226 225 224 221 216 209 203 200 199 199 198 197 196 197 198 199 198 196 197 200 201 202 201 203 207 215 225 238 253 266 273 278 279 280 279 280 280 280 280 281
227 226 225 224 225 224 224 223 223 224 224 224 225 226 228 228 231 235 239 241 241 240 239 239 238 235 231 227 225 223 223 221 218 213 207 201 199 198 198 197 196 196 197 198 197 195 193 195 197 198 198 201 205 212 222 234 250 264 273 277 280 281 281 282 282 282 282 283 284
225 224 223 223 223 223 222 222 222 222 222 222 224 225 226 228 234 239 241 240 239 239 240 239 236 231 226 223 221 221 220 219 216 211 205 200 198 197 196 195 195 195 195 194 192 191 192 195 196 197 199 204 212 222 234 247 258 267 272 275 277 279 280 281 281 282 284 285 287
222 222 223 223 222 222 221 221 221 221 221 221 223 223 226 231 237 241 242 240 237 238 239 238 231 225 220 218 217 217 217 216 213 208 203 198 196 194 193 193 193 192 190 188 188 190 193 196 198 200 205 212 222 232 242 249 256 262 267 271 274 277 279 279 280 282 284 286 288
221 222 222 222 221 221 221 220 221 221 221 221 222 223 227 234 239 240 239 238 235 235 235 232 225 218 214 213 214 215 215 214 211 206 200 195 193 191 191 192 190 188 187 187 189 192 195 198 201 205 212 220 229 236 241 247 252 258 264 269 273 276 277 278 280 282 284 286 288
220 220 220 220 219 219 220 220 221 221 221 221 221 224 230 236 237 235 232 231 230 230 228 224 218 213 211 211 212 214 214 212 208 202 196 192 190 190 190 189 187 186 188 190 193 196 199 201 204 209 216 223 230 235 240 246 254 260 267 272 275 277 278 279 281 283 285 287 288
218 219 219 218 218 218 219 220 220 220 220 220 221 225 231 234 232 228 224 223 224 224 221 217 213 211 210 211 212 213 213 210 204 197 192 189 189 189 188 186 186 188 191 194 197 200 202 204 206 211 217 222 229 235 243 252 260 267 273 276 278 279 280 282 283 284 285 286 287
216 216 216 216 216 217 218 219 219 218 217 218 221 226 229 229 227 222 218 217 219 218 216 212 210 210 212 212 213 212 210 205 198 192 188 188 188 188 187 187 188 191 193 196 199 202 203 204 207 212 218 223 230 239 249 259 267 273 276 278 279 280 281 283 284 285 286 286 287
214 214 214 214 214 215 215 216 216 216 216 218 222 226 227 226 221 217 215 214 214 213 211 210 210 210 211 212 212 209 204 198 192 188 187 187 187 187 187 189 191 193 195 197 199 200 202 204 208 214 220 226 234 244 254 263 270 274 276 277 278 280 281 283 284 285 286 287 287
212 212 212 212 212 212 212 212 214 216 219 222 226 227 224 221 216 213 212 212 210 209 208 209 210 211 210 209 207 202 196 191 188 187 187 187 186 187 189 191 193 195 195 196 197 198 201 204 209 215 222 230 239 249 258 265 270 273 275 277 279 281 282 283 285 286 286 287 288
209 209 208 208 209 209 210 210 213 217 221 222 223 221 217 214 212 210 210 208 207 205 206 208 209 209 208 206 201 195 190 187 186 186 186 186 187 189 191 193 194 193 193 194 195 196 199 204 210 217 225 234 244 254 262 268 271 274 277 280 281 283 283 284 285 285 286 287 288
205 204 204 204 205 205 206 207 211 214 216 216 215 213 211 210 209 207 206 204 203 203 204 205 207 207 206 203 198 192 187 185 184 184 185 186 188 190 191 191 190 189 189 191 193 195 200 206 213 221 231 241 251 260 266 271 274 277 280 282 283 283 284 284 285 286 287 287 288
199 199 200 200 201 201 201 202 205 207 208 209 210 210 208 207 205 203 201 201 201 202 203 204 205 206 205 201 195 190 186 183 182 182 184 186 187 187 186 184 183 184 186 189 193 198 204 211 219 228 239 249 258 265 270 274 277 280 281 283 283 282 282 284 285 285 286 287 288
194 194 195 196 196 196 196 197 199 202 205 207 207 206 204 201 200 199 198 199 200 201 202 203 204 204 202 198 192 188 185 183 182 182 182 183 183 181 179 178 180 183 187 191 196 202 209 217 227 237 248 257 264 270 275 278 281 282 283 282 281 281 282 282 284 285 286 287 288
189 190 190 191 192 192 192 193 196 199 201 202 201 199 197 196 196 196 197 198 199 200 201 201 202 201 198 192 187 184 182 181 181 181 180 179 178 177 177 179 182 186 190 195 200 207 216 225 235 246 256 264 270 275 280 282 283 283 282 281 281 281 281 282 283 284 286 287 288
185 185 186 187 188 188 188 190 192 194 196 195 194 192 192 193 194 195 196 197 197 198 198 198 198 195 190 185 182 180 178 178 178 179 178 178 177 178 181 184 187 190 194 199 206 215 224 234 244 253 262 269 275 280 283 283 283 282 281 281 282 282 283 283 284 286 287 288 288
183 184 185 185 185 185 186 188 189 189 190 190 189 190 190 191 192 193 194 195 195 195 194 192 189 185 181 178 176 175 175 175 176 176 177 178 179 181 185 188 190 193 198 205 214 223 232 241 250 259 267 274 279 282 281 280 280 280 280 282 283 284 285 286 287 288 289 289 289
184 185 185 184 183 183 184 184 185 185 186 186 187 188 189 190 191 192 193 193 192 190 187 184 180 176 173 172 171 171 172 173 175 176 177 179 181 184 186 188 191 195 202 211 220 230 240 250 258 266 273 278 280 279 277 277 278 280 282 283 285 287 288 289 289 290 290 291 290
183 183 183 182 181 180 180 181 182 183 183 185 186 187 188 188 189 190 190 189 186 184 180 176 172 169 167 167 168 169 171 173 175 177 179 180 182 184 186 189 193 200 209 219 229 240 251 261 269 275 279 280 278 276 276 278 281 283 285 286 287 288 289 290 291 291 291 291 291
178 178 178 178 177 176 177 178 180 181 182 183 184 185 186 186 187 187 186 184 180 177 173 169 165 163 163 164 167 170 172 174 176 178 179 181 181 183 186 192 199 209 219 230 241 252 262 270 275 279 281 280 278 278 280 283 285 286 287 287 288 289 290 291 291 292 292 291 291
174 174 174 174 173 174 175 177 178 180 181 182 183 184 185 185 185 184 181 177 173 168 164 162 161 161 163 166 169 172 174 176 177 178 179 180 181 185 192 200 209 220 232 244 254 263 269 273 277 279 281 282 282 284 285 287 287 287 288 288 289 290 291 292 292 292 292 291 290
173 173 174 173 173 173 174 176 177 179 180 182 183 184 184 183 181 177 172 167 163 160 159 159 160 162 165 169 171 173 175 177 177 177 177 179 184 192 202 212 222 234 246 256 263 268 272 274 277 280 284 287 287 288 288 288 288 289 290 290 291 292 292 293 293 292 292 291 290
174 175 175 174 174 174 174 176 177 179 180 181 182 182 181 178 172 167 162 159 157 157 158 160 162 165 167 169 171 173 174 174 174 175 177 183 192 203 215 225 236 247 256 263 267 270 272 275 280 285 289 290 289 288 288 289 290 291 291 292 293 293 294 294 294 293 292 292 291
175 175 175 175 175 175 175 176 177 179 180 180 179 178 175 170 164 159 156 155 155 157 159 161 163 164 165 167 168 170 170 170 171 176 183 193 205 216 226 236 245 254 260 264 267 271 275 280 285 289 291 289 289 289 289 290 291 292 293 294 295 295 295 295 294 293 293 293 293
177 177 176 176 175 175 175 176 177 179 179 178 175 170 166 161 157 154 153 153 154 156 158 160 161 162 162 162 163 164 168 172 178 185 195 206 216 225 233 241 248 255 260 266 273 278 282 286 288 289 290 289 289 290 291 292 294 295 296 296 297 296 296 295 294 294 294 294 295
179 180 179 178 177 176 176 177 177 177 175 171 165 160 156 153 152 151 151 152 153 155 156 157 158 158 159 160 161 165 170 178 187 197 206 214 221 227 234 243 253 262 269 275 280 283 285 286 287 288 289 290 291 292 294 296 298 299 299 299 298 298 297 296 296 295 295 296 297
182 184 185 183 182 180 178 176 173 169 164 159 155 152 151 150 150 150 150 151 152 153 153 153 154 155 157 159 164 169 176 183 191 201 210 217 224 232 243 256 267 274 279 281 282 282 283 284 286 288 290 292 294 296 299 301 302 302 301 300 299 299 298 298 298 298 297 296 297
186 188 190 188 184 178 172 165 160 155 152 150 149 149 149 148 148 148 148 149 150 150 150 151 152 154 157 161 167 171 176 180 188 201 214 226 239 251 262 272 277 280 280 280 280 280 281 283 286 289 292 296 299 302 304 305 305 304 303 301 301 300 300 300 300 299 298 296 296
185 187 185 179 170 161 154 150 147 146 145 146 146 147 147 146 145 145 145 147 148 148 149 150 150 152 155 159 164 169 175 183 196 212 228 242 256 267 273 277 278 276 275 276 277 279 281 285 290 294 298 302 306 308 308 308 308 306 305 303 302 301 300 300 299 299 298 297 296
178 173 167 160 152 147 144 142 142 142 143 143 144 144 144 143 143 144 145 146 146 147 147 147 148 150 154 161 169 180 191 200 213 225 238 249 258 264 266 267 267 267 269 271 275 279 284 291 297 301 305 309 311 312 312 311 310 308 306 304 303 302 301 299 298 298 298 298 298
Height
1450 1451 1453 1455 1456 1458 1460 1461 1463 1464 1464 1464 1465 1465 1465 1467 1467 1468 1469 1469 1470 1471 1472 1473 1475 1476 1477 1478 1480 1481 1482 1482 1483 1485 1487 1489 1490 1491 1492 1493 1495 1497 1498 1499 1499 1500 1500 1501 1501 1502 1503 1504 1505 1505 1506 1506 1507 1508 1508 1508 1508 1508 1508 1508 1508 1508 1508 1508 1508
1447 1449 1451 1453 1455 1456 1458 1460 1461 1462 1463 1463 1463 1462 1463 1464 1465 1465 1466 1467 1468 1470 1471 1472 1473 1474 1475 1477 1479 1480 1480 1481 1482 1484 1486 1487 1489 1490 1490 1492 1494 1495 1496 1497 1498 1499 1500 1500 1501 1502 1503 1504 1505 1505 1505 1506 1506 1507 1507 1507 1507 1506 1506 1506 1506 1507 1507 1507 1506
1446 1447 1449 1451 1453 1455 1456 1457 1458 1460 1461 1462 1461 1461 1461 1461 1462 1464 1466 1467 1468 1469 1470 1471 1472 1473 1475 1476 1478 1479 1480 1480 1482 1483 1485 1486 1487 1488 1490 1491 1493 1494 1495 1496 1497 1498 1499 1500 1501 1503 1504 1504 1505 1505 1505 1506 1507 1507 1507 1506 1505 1505 1505 1505 1505 1505 1505 1505 1505
1444 1445 1447 1449 1451 1452 1454 1455 1456 1457 1459 1460 1459 1459 1460 1461 1463 1464 1466 1467 1468 1468 1469 1470 1471 1472 1474 1475 1477 1478 1478 1480 1481 1483 1484 1485 1486 1487 1489 1490 1491 1492 1493 1495 1496 1497 1499 1500 1501 1502 1503 1503 1504 1504 1504 1505 1506 1507 1506 1505 1505 1504 1504 1504 1504 1504 1504 1504 1504
1442 1444 1445 1447 1449 1451 1452 1453 1455 1455 1456 1457 1457 1458 1459 1461 1462 1464 1465 1466 1466 1467 1467 1469 1470 1471 1473 1474 1475 1476 1477 1479 1480 1482 1483 1484 1485 1486 1488 1489 1490 1491 1492 1493 1495 1496 1497 1499 1500 1500 1500 1501 1502 1502 1503 1504 1505 1506 1505 1504 1503 1503 1503 1503 1503 1503 1503 1503 1503
1441 1442 1444 1446 1448 1449 1450 1451 1452 1453 1454 1455 1455 1456 1457 1459 1461 1462 1463 1464 1465 1465 1466 1467 1468 1470 1471 1473 1474 1475 1476 1478 1479 1481 1482 1483 1484 1485 1486 1488 1489 1490 1491 1492 1494 1495 1496 1497 1497 1498 1498 1499 1500 1501 1502 1503 1504 1504 1504 1503 1502 1502 1501 1501 1501 1502 1502 1501 1501
1439 1441 1442 1444 1446 1447 1448 1449 1450 1451 1452 1452 1452 1453 1455 1456 1458 1460 1461 1462 1463 1464 1465 1465 1467 1468 1470 1471 1472 1474 1475 1477 1478 1480 1481 1482 1483 1484 1485 1486 1487 1489 1490 1491 1492 1493 1494 1494 1495 1495 1496 1497 1498 1499 1500 1502 1503 1503 1502 1501 1501 1501 1500 1500 1500 1500 1500 1500 1500
1438 1439 1440 1442 1444 1445 1446 1447 1448 1449 1449 1450 1450 1451 1453 1455 1456 1458 1459 1460 1461 1462 1463 1464 1465 1467 1468 1469 1470 1472 1474 1475 1477 1479 1480 1481 1482 1483 1484 1485 1487 1488 1489 1490 1491 1491 1492 1492 1493 1494 1495 1496 1497 1498 1499 1500 1501 1501 1501 1500 1500 1500 1500 1500 1500 1500 1500 1499 1499
1437 1438 1439 1440 1442 1443 1444 1445 1446 1446 1447 1448 1449 1450 1451 1453 1454 1455 1456 1458 1460 1461 1462 1464 1465 1466 1467 1468 1469 1470 1472 1474 1476 1477 1479 1480 1480 1482 1483 1485 1486 1487 1488 1489 1490 1490 1490 1491 1492 1493 1494 1495 1496 1496 1498 1499 1500 1500 1499 1499 1499 1498 1498 1498 1498 1498 1498 1498 1498
1435 1436 1437 1439 1440 1441 1442 1444 1444 1445 1445 1446 1447 1449 1450 1452 1453 1453 1455 1457 1460 1461 1462 1463 1464 1465 1466 1467 1468 1469 1471 1473 1475 1476 1477 1478 1480 1481 1482 1484 1485 1486 1487 1488 1489 1489 1490 1490 1491 1492 1494 1494 1495 1495 1496 1498 1498 1498 1498 1497 1497 1497 1497 1497 1497 1497 1497 1497 1497
1434 1435 1435 1436 1438 1439 1440 1441 1442 1443 1444 1445 1447 1448 1449 1450 1451 1452 1454 1457 1459 1460 1461 1462 1463 1464 1465 1466 1467 1469 1470 1472 1474 1475 1476 1477 1478 1480 1482 1483 1484 1485 1486 1487 1488 1489 1489 1490 1491 1492 1493 1494 1494 1495 1495 1496 1497 1497 1496 1496 1496 1496 1496 1496 1496 1496 1496 1496 1495
1432 1433 1434 1435 1435 1436 1438 1439 1440 1441 1443 1444 1445 1446 1447 1448 1449 1451 1453 1456 1458 1459 1460 1461 1462 1463 1465 1466 1467 1468 1469 1471 1472 1473 1475 1476 1477 1479 1481 1482 1484 1485 1486 1487 1487 1488 1489 1490 1490 1491 1492 1493 1493 1494 1495 1495 1495 1495 1495 1495 1495 1495 1495 1495 1495 1495 1495 1495 1494
1431 1431 1432 1433 1433 1435 1436 1437 1438 1440 1441 1442 1444 1445 1446 1447 1448 1450 1452 1455 1456 1458 1459 1460 1462 1463 1464 1465 1466 1467 1468 1470 1471 1472 1473 1475 1477 1479 1480 1482 1484 1485 1485 1486 1487 1488 1489 1490 1490 1491 1491 1492 1493 1493 1494 1494 1494 1494 1494 1494 1494 1494 1493 1493 1493 1493 1493 1493 1492
1429 1429 1430 1431 1432 1433 1434 1435 1436 1438 1440 1441 1442 1443 1445 1446 1447 1450 1451 1453 1454 1456 1457 1459 1461 1462 1464 1465 1465 1466 1467 1468 1470 1471 1472 1474 1476 1478 1480 1481 1483 1484 1485 1485 1486 1488 1489 1490 1490 1490 1491 1491 1492 1492 1493 1493 1493 1493 1493 1493 1492 1492 1492 1492 1492 1492 1491 1491 1491
1427 1427 1428 1429 1430 1431 1432 1434 1435 1437 1438 1440 1441 1442 1444 1446 1448 1449 1450 1451 1452 1453 1455 1457 1459 1461 1463 1463 1464 1465 1466 1467 1468 1470 1472 1474 1475 1477 1479 1481 1482 1483 1484 1485 1486 1488 1489 1490 1490 1490 1490 1491 1491 1491 1491 1491 1491 1491 1491 1491 1491 1491 1491 1491 1490 1490 1490 1490 1489
1425 1426 1427 1428 1429 1430 1431 1432 1434 1436 1437 1439 1440 1442 1444 1446 1448 1449 1449 1450 1450 1451 1453 1455 1458 1460 1461 1462 1463 1464 1465 1466 1467 1469 1471 1473 1475 1477 1479 1480 1481 1482 1483 1484 1485 1487 1488 1488 1489 1489 1490 1490 1490 1490 1490 1490 1490 1490 1490 1490 1490 1490 1490 1490 1489 1489 1489 1488 1488
1424 1425 1425 1426 1428 1429 1430 1432 1433 1435 1436 1438 1440 1441 1443 1445 1446 1447 1447 1448 1448 1449 1451 1454 1456 1458 1459 1460 1461 1462 1463 1465 1467 1469 1470 1472 1475 1476 1478 1479 1480 1481 1483 1484 1485 1486 1486 1487 1488 1488 1489 1489 1490 1490 1490 1490 1490 1489 1489 1489 1489 1489 1488 1488 1488 1487 1487 1486 1486
1422 1423 1425 1426 1427 1428 1430 1431 1433 1434 1435 1437 1439 1440 1442 1443 1444 1445 1445 1445 1446 1448 1450 1453 1455 1456 1458 1458 1459 1460 1462 1464 1466 1468 1470 1472 1474 1475 1477 1478 1480 1481 1482 1483 1484 1485 1485 1486 1487 1487 1488 1489 1489 1489 1489 1489 1488 1488 1488 1487 1487 1487 1487 1487 1486 1486 1485 1485 1485
1421 1422 1424 1425 1427 1428 1430 1430 1432 1433 1434 1436 1438 1439 1440 1441 1442 1442 1443 1445 1446 1448 1450 1452 1454 1455 1456 1457 1458 1459 1461 1463 1466 1468 1470 1472 1473 1475 1476 1478 1479 1480 1481 1482 1483 1484 1485 1485 1486 1487 1487 1488 1488 1488 1488 1487 1487 1486 1486 1486 1486 1486 1486 1485 1485 1484 1484 1483 1483
1421 1422 1423 1425 1426 1427 1429 1430 1430 1432 1434 1435 1437 1438 1439 1440 1440 1441 1442 1444 1445 1447 1449 1451 1452 1454 1455 1456 1457 1459 1461 1463 1466 1468 1469 1471 1472 1474 1476 1478 1479 1480 1481 1481 1482 1483 1484 1485 1485 1486 1487 1487 1487 1487 1486 1486 1486 1485 1485 1485 1485 1485 1484 1484 1483 1483 1482 1482 1481
1421 1422 1423 1424 1425 1426 1427 1428 1429 1431 1433 1435 1436 1437 1437 1438 1439 1440 1442 1443 1445 1446 1448 1450 1451 1452 1454 1455 1456 1458 1461 1463 1465 1467 1468 1470 1472 1474 1476 1477 1478 1479 1480 1480 1481 1482 1483 1484 1485 1486 1486 1486 1486 1486 1485 1485 1485 1485 1484 1484 1484 1484 1483 1482 1482 1481 1481 1480 1480
1420 1421 1423 1424 1424 1425 1426 1427 1429 1431 1433 1434 1435 1435 1436 1437 1439 1440 1441 1443 1444 1446 1448 1449 1450 1451 1452 1454 1455 1458 1460 1462 1464 1466 1468 1470 1472 1474 1476 1477 1478 1478 1479 1480 1481 1482 1482 1483 1484 1485 1485 1485 1485 1485 1484 1484 1484 1483 1483 1483 1483 1482 1481 1481 1480 1480 1479 1479 1479
1420 1420 1421 1422 1423 1424 1425 1427 1429 1430 1431 1432 1433 1434 1435 1437 1438 1440 1441 1442 1444 1445 1447 1448 1449 1450 1452 1453 1455 1458 1460 1462 1464 1466 1469 1471 1473 1474 1475 1476 1477 1478 1479 1480 1481 1481 1482 1483 1484 1484 1485 1484 1484 1483 1483 1483 1483 1482 1482 1482 1481 1481 1480 1480 1479 1478 1478 1478 1477
1418 1419 1420 1421 1422 1424 1425 1426 1428 1429 1430 1431 1432 1434 1435 1437 1438 1439 1440 1442 1443 1445 1446 1447 1448 1450 1452 1454 1456 1458 1460 1462 1464 1467 1469 1471 1472 1473 1474 1475 1476 1477 1479 1480 1481 1482 1482 1483 1483 1484 1483 1483 1483 1482 1482 1482 1481 1481 1481 1480 1480 1480 1479 1478 1478 1477 1477 1476 1476
1417 1418 1419 1420 1422 1423 1425 1426 1427 1428 1429 1430 1432 1433 1435 1436 1437 1439 1440 1441 1442 1444 1445 1446 1448 1450 1452 1455 1457 1459 1461 1463 1465 1467 1469 1470 1471 1472 1474 1475 1476 1477 1478 1480 1480 1481 1482 1482 1482 1482 1482 1482 1481 1481 1481 1480 1480 1480 1480 1479 1479 1478 1477 1477 1476 1476 1475 1475 1475
1417 1418 1419 1420 1421 1423 1424 1425 1426 1427 1429 1430 1431 1433 1434 1436 1437 1438 1439 1440 1442 1443 1445 1447 1449 1451 1453 1455 1457 1460 1462 1464 1465 1467 1468 1469 1470 1472 1473 1475 1476 1477 1478 1479 1480 1480 1481 1481 1481 1481 1481 1480 1480 1480 1480 1479 1479 1478 1478 1478 1477 1477 1476 1476 1475 1475 1474 1474 1473
1416 1417 1418 1419 1421 1422 1424 1425 1426 1427 1428 1430 1431 1432 1434 1435 1436 1438 1439 1440 1442 1444 1446 1448 1450 1451 1453 1455 1457 1459 1461 1463 1465 1466 1468 1469 1470 1471 1473 1474 1475 1476 1477 1478 1479 1479 1480 1480 1480 1480 1480 1480 1479 1479 1478 1478 1477 1477 1476 1476 1475 1475 1475 1474 1474 1474 1473 1472 1472
1415 1416 1418 1420 1421 1422 1423 1425 1425 1427 1428 1429 1431 1432 1434 1435 1436 1438 1439 1441 1443 1445 1447 1448 1450 1451 1453 1455 1457 1459 1460 1462 1464 1466 1467 1469 1470 1471 1473 1474 1475 1476 1477 1477 1478 1478 1479 1479 1479 1479 1479 1478 1478 1477 1477 1477 1476 1476 1475 1475 1474 1474 1473 1473 1472 1472 1471 1471 1470
1416 1417 1418 1420 1421 1422 1423 1424 1425 1426 1428 1430 1431 1432 1434 1435 1437 1438 1440 1442 1444 1445 1446 1448 1450 1451 1453 1455 1457 1459 1461 1462 1464 1466 1467 1469 1470 1471 1472 1473 1474 1475 1476 1477 1477 1477 1478 1478 1477 1477 1477 1477 1477 1476 1476 1476 1475 1475 1474 1473 1473 1472 1472 1471 1471 1470 1470 1469 1469
1416 1417 1418 1420 1421 1422 1423 1424 1425 1427 1428 1430 1431 1433 1434 1436 1437 1439 1441 1442 1444 1445 1446 1447 1449 1451 1454 1456 1458 1460 1461 1463 1465 1466 1468 1469 1470 1471 1472 1472 1473 1474 1475 1476 1476 1476 1476 1476 1476 1476 1476 1476 1476 1475 1475 1475 1474 1473 1473 1472 1471 1471 1470 1470 1469 1469 1468 1467 1466
1417 1417 1418 1420 1421 1422 1423 1424 1426 1427 1428 1430 1431 1433 1435 1436 1438 1440 1441 1442 1443 1445 1446 1448 1450 1452 1455 1457 1459 1460 1462 1464 1465 1466 1467 1468 1469 1470 1471 1472 1473 1474 1475 1475 1475 1475 1475 1475 1474 1475 1475 1475 1475 1474 1474 1473 1473 1472 1471 1471 1470 1469 1469 1468 1467 1467 1466 1465 1465
1417 1418 1419 1420 1421 1422 1423 1425 1426 1427 1429 1430 1432 1434 1435 1437 1438 1440 1441 1442 1444 1446 1448 1450 1452 1454 1456 1458 1460 1461 1462 1464 1465 1466 1467 1468 1469 1470 1471 1472 1473 1474 1474 1474 1474 1474 1473 1473 1473 1474 1474 1474 1474 1473 1472 1472 1471 1471 1470 1469 1469 1468 1467 1466 1466 1465 1464 1463 1463
1418 1419 1420 1420 1421 1422 1424 1425 1426 1428 1430 1431 1433 1435 1436 1438 1439 1440 1442 1444 1446 1448 1450 1451 1453 1455 1457 1459 1460 1462 1463 1464 1465 1466 1467 1468 1469 1470 1471 1472 1473 1473 1473 1473 1473 1472 1472 1473 1473 1473 1473 1473 1472 1472 1471 1470 1470 1469 1469 1468 1467 1466 1465 1465 1464 1463 1462 1462 1461
1419 1420 1420 1421 1422 1423 1425 1426 1428 1430 1431 1433 1434 1435 1437 1438 1440 1442 1444 1445 1448 1450 1451 1453 1455 1457 1459 1460 1462 1463 1464 1464 1465 1466 1467 1468 1469 1470 1471 1471 1472 1472 1471 1472 1472 1472 1472 1472 1472 1472 1472 1471 1471 1470 1470 1469 1469 1468 1467 1466 1465 1465 1464 1463 1462 1462 1461 1460 1460
1420 1420 1421 1422 1423 1425 1426 1428 1429 1431 1432 1434 1435 1437 1438 1440 1441 1443 1445 1447 1449 1451 1453 1455 1457 1459 1460 1461 1462 1463 1464 1465 1465 1466 1467 1469 1470 1470 1470 1470 1470 1470 1471 1471 1471 1471 1471 1471 1470 1470 1470 1470 1470 1469 1469 1468 1467 1466 1465 1465 1464 1463 1462 1461 1461 1460 1459 1459 1458
1421 1422 1423 1424 1425 1426 1428 1429 1431 1432 1434 1435 1437 1438 1440 1442 1444 1445 1447 1449 1451 1453 1455 1457 1458 1460 1461 1462 1462 1463 1464 1465 1466 1467 1468 1469 1469 1469 1469 1470 1470 1470 1470 1470 1470 1470 1470 1470 1470 1470 1470 1469 1469 1468 1467 1467 1466 1465 1464 1463 1463 1462 1461 1460 1460 1459 1458 1457 1456
1423 1424 1425 1426 1427 1428 1430 1431 1432 1434 1435 1437 1439 1440 1442 1444 1446 1448 1450 1451 1453 1455 1456 1458 1459 1460 1461 1462 1463 1464 1465 1466 1467 1467 1468 1468 1468 1468 1469 1469 1469 1470 1470 1470 1469 1469 1469 1469 1469 1469 1468 1468 1467 1467 1466 1465 1465 1464 1463 1462 1461 1460 1460 1459 1458 1458 1457 1456 1455
1425 1426 1427 1428 1429 1430 1432 1433 1435 1436 1437 1439 1441 1443 1445 1446 1448 1449 1451 1453 1454 1455 1457 1458 1459 1460 1461 1462 1464 1464 1465 1465 1466 1466 1467 1467 1468 1468 1469 1469 1469 1469 1469 1469 1468 1468 1468 1468 1468 1467 1467 1467 1466 1465 1465 1464 1463 1462 1461 1461 1460 1459 1459 1458 1457 1456 1456 1455 1455
1428 1429 1430 1430 1431 1432 1434 1435 1436 1438 1440 1441 1443 1445 1446 1448 1449 1450 1452 1454 1455 1456 1458 1459 1460 1461 1462 1463 1463 1464 1464 1465 1465 1466 1466 1467 1467 1468 1468 1468 1468 1468 1468 1468 1468 1467 1467 1467 1466 1466 1466 1465 1465 1464 1463 1462 1462 1461 1460 1460 1459 1458 1457 1457 1456 1455 1455 1454 1453
1429 1430 1431 1432 1433 1434 1435 1437 1438 1440 1442 1443 1445 1446 1448 1449 1451 1452 1454 1455 1456 1458 1459 1460 1460 1461 1462 1463 1463 1464 1464 1465 1465 1466 1466 1467 1467 1467 1467 1467 1467 1467 1467 1467 1467 1466 1466 1466 1465 1465 1465 1464 1463 1463 1462 1461 1460 1460 1459 1458 1458 1457 1456 1456 1455 1455 1454 1453 1452
1430 1431 1432 1433 1434 1435 1437 1438 1440 1442 1444 1445 1447 1448 1450 1451 1452 1454 1455 1456 1457 1458 1459 1460 1460 1461 1462 1463 1463 1464 1464 1465 1465 1466 1466 1466 1466 1467 1467 1467 1467 1467 1466 1466 1466 1466 1465 1465 1464 1463 1463 1462 1462 1461 1460 1460 1459 1458 1457 1457 1456 1456 1455 1455 1454 1454 1453 1452 1451